UAE417 YSSY-OMDB

Flight info

Callsign UAE417
Flight time N/A
Altitude 30000
Route KADOM A576 KALUG/N0505F320 A576 AS A587 ONOXA G326 BLI/N0503F340 M635 JUNHA DCT IRTAD A464 SJ G579 VJB Y342 AROSO Y513 KALIL Y504 BILIK G582 PUGER P574 ELSAR/N0495F360 P574 ADPOP/N0491F380 P574 PAROK Q899 ITURA M762 VAXAS/N0472F240 M762 MIVEK P574 IMPED
Aircraft B77W/H-SDE1E2E3FGHIJ2J3J4J5M1RWXY/LB1D1

Departure

Time 2026-05-01 09:44
Airport Sydney Kingsford Smith International Airport (YSSY)

Arrival

Time N/A
Airport Dubai International Airport (OMDB)
Time Latitude Longitude Altitude Speed Heading
2026-05-01 09:05 -33.93827 151.16840 35 ft 0 kts 74°
2026-05-01 09:31 -33.93837 151.16796 31 ft 4 kts 79°
2026-05-01 09:32 -33.93840 151.16765 35 ft 4 kts 99°
2026-05-01 09:32 -33.93827 151.16739 33 ft 0 kts 164°
2026-05-01 09:35 -33.93894 151.16762 35 ft 18 kts 164°
2026-05-01 09:36 -33.94014 151.16803 35 ft 17 kts 164°
2026-05-01 09:36 -33.94049 151.16874 35 ft 11 kts 88°
2026-05-01 09:36 -33.94025 151.16992 34 ft 21 kts 74°
2026-05-01 09:36 -33.93991 151.17132 34 ft 15 kts 74°
2026-05-01 09:37 -33.94024 151.17233 34 ft 15 kts 154°
2026-05-01 09:37 -33.94301 151.17311 35 ft 36 kts 167°
2026-05-01 09:37 -33.94573 151.17382 35 ft 40 kts 168°
2026-05-01 09:38 -33.95050 151.17505 34 ft 27 kts 167°
2026-05-01 09:38 -33.95236 151.17554 34 ft 27 kts 168°
2026-05-01 09:38 -33.95422 151.17601 34 ft 27 kts 168°
2026-05-01 09:39 -33.95841 151.17712 35 ft 35 kts 168°
2026-05-01 09:39 -33.96086 151.17774 35 ft 29 kts 168°
2026-05-01 09:39 -33.96247 151.17816 35 ft 0 kts 168°
2026-05-01 09:40 -33.96248 151.17817 35 ft 1 kts 168°
2026-05-01 09:40 -33.96333 151.17839 35 ft 1 kts 167°
2026-05-01 09:40 -33.96341 151.17841 35 ft 1 kts 167°
2026-05-01 09:41 -33.96351 151.17843 35 ft 2 kts 167°
2026-05-01 09:41 -33.96432 151.17916 35 ft 0 kts 93°
2026-05-01 09:41 -33.96432 151.17917 35 ft 0 kts 93°
2026-05-01 09:42 -33.96427 151.17980 34 ft 12 kts 80°
2026-05-01 09:42 -33.96378 151.18047 34 ft 13 kts
2026-05-01 09:42 -33.96357 151.18044 34 ft 0 kts 350°
2026-05-01 09:43 -33.96352 151.18043 34 ft 6 kts 350°
2026-05-01 09:43 -33.96150 151.17991 32 ft 65 kts 348°
2026-05-01 09:44 -33.94350 151.17530 36 ft 192 kts 348°
2026-05-01 09:44 -33.92973 151.17184 306 ft 206 kts 349°
2026-05-01 09:44 -33.91539 151.16837 807 ft 212 kts 353°
2026-05-01 09:45 -33.90128 151.16399 1472 ft 211 kts 333°
2026-05-01 09:45 -33.88609 151.13258 2003 ft 239 kts 292°
2026-05-01 09:45 -33.87962 151.11352 2311 ft 254 kts 298°
2026-05-01 09:46 -33.87127 151.09417 2639 ft 265 kts 302°
2026-05-01 09:46 -33.86174 151.07478 3166 ft 272 kts 304°
2026-05-01 09:46 -33.85163 151.05532 3742 ft 276 kts 305°
2026-05-01 09:46 -33.84129 151.03585 4418 ft 275 kts 305°
2026-05-01 09:47 -33.83169 151.01590 4933 ft 280 kts 292°
2026-05-01 09:47 -33.82699 150.99312 4998 ft 284 kts 282°
2026-05-01 09:47 -33.82352 150.96975 5010 ft 284 kts 282°
2026-05-01 09:47 -33.81995 150.94646 4996 ft 283 kts 282°
2026-05-01 09:48 -33.81632 150.92331 4991 ft 281 kts 283°
2026-05-01 09:48 -33.81264 150.90029 4996 ft 280 kts 283°
2026-05-01 09:48 -33.80891 150.87731 5136 ft 280 kts 283°
2026-05-01 09:48 -33.80511 150.85421 5704 ft 283 kts 283°
2026-05-01 09:49 -33.80124 150.83085 6290 ft 286 kts 283°
2026-05-01 09:49 -33.79734 150.80736 6867 ft 288 kts 283°
2026-05-01 09:49 -33.79336 150.78359 7403 ft 291 kts 283°
2026-05-01 09:49 -33.78934 150.75968 7948 ft 294 kts 283°
2026-05-01 09:50 -33.78526 150.73546 8469 ft 297 kts 283°
2026-05-01 09:50 -33.78117 150.71126 8999 ft 300 kts 283°
2026-05-01 09:50 -33.77701 150.68658 9554 ft 302 kts 283°
2026-05-01 09:50 -33.77281 150.66177 10103 ft 304 kts 283°
2026-05-01 09:51 -33.76851 150.63637 10384 ft 318 kts 283°
2026-05-01 09:51 -33.76395 150.60963 10521 ft 335 kts 283°
2026-05-01 09:51 -33.75915 150.58147 10655 ft 353 kts 283°
2026-05-01 09:51 -33.75410 150.55182 10828 ft 370 kts 283°
2026-05-01 09:52 -33.74886 150.52109 11185 ft 380 kts 283°
2026-05-01 09:52 -33.74352 150.48973 11699 ft 386 kts 283°
2026-05-01 09:52 -33.73811 150.45799 12345 ft 388 kts 283°
2026-05-01 09:52 -33.73266 150.42613 13071 ft 390 kts 283°
2026-05-01 09:53 -33.72719 150.39418 13746 ft 393 kts 283°
2026-05-01 09:53 -33.72165 150.36187 14354 ft 397 kts 283°
2026-05-01 09:53 -33.71603 150.32922 14922 ft 400 kts 283°
2026-05-01 09:53 -33.71031 150.29636 15518 ft 403 kts 284°
2026-05-01 09:54 -33.70305 150.26376 16106 ft 406 kts 288°
2026-05-01 09:54 -33.69439 150.23180 16696 ft 408 kts 290°
2026-05-01 09:54 -33.68511 150.19944 17285 ft 412 kts 290°
2026-05-01 09:54 -33.67571 150.16684 17833 ft 415 kts 289°
2026-05-01 09:55 -33.66630 150.13389 18412 ft 419 kts 289°
2026-05-01 09:55 -33.65695 150.10065 18932 ft 422 kts 289°
2026-05-01 09:55 -33.64766 150.06718 19474 ft 423 kts 289°
2026-05-01 09:55 -33.63839 150.03359 20061 ft 424 kts 289°
2026-05-01 09:56 -33.62915 149.99991 20552 ft 427 kts 289°
2026-05-01 09:56 -33.61983 149.96592 21041 ft 430 kts 289°
2026-05-01 09:56 -33.61047 149.93177 21591 ft 430 kts 289°
2026-05-01 09:56 -33.60108 149.89760 22081 ft 434 kts 289°
2026-05-01 09:57 -33.59159 149.86305 22494 ft 438 kts 289°
2026-05-01 09:57 -33.58200 149.82824 22982 ft 440 kts 289°
2026-05-01 09:57 -33.57238 149.79333 23493 ft 442 kts 289°
2026-05-01 09:57 -33.56270 149.75830 23970 ft 444 kts 289°
2026-05-01 09:58 -33.55296 149.72307 24349 ft 446 kts 289°
2026-05-01 09:58 -33.54317 149.68768 24721 ft 448 kts 289°
2026-05-01 09:58 -33.53343 149.65255 25120 ft 450 kts 289°
2026-05-01 09:58 -33.52340 149.61642 25522 ft 452 kts 288°
2026-05-01 09:59 -33.51345 149.58061 25895 ft 454 kts 288°
2026-05-01 09:59 -33.50357 149.54511 26269 ft 456 kts 288°
2026-05-01 09:59 -33.49352 149.50903 26622 ft 458 kts 288°
2026-05-01 09:59 -33.48340 149.47272 26964 ft 460 kts 288°
2026-05-01 10:00 -33.47322 149.43627 27309 ft 462 kts 287°
2026-05-01 10:00 -33.46299 149.39967 27655 ft 464 kts 287°
2026-05-01 10:00 -33.45273 149.36303 27987 ft 466 kts 287°
2026-05-01 10:00 -33.44240 149.32617 28310 ft 468 kts 287°
2026-05-01 10:01 -33.43198 149.28907 28630 ft 470 kts 287°
2026-05-01 10:01 -33.42152 149.25187 28894 ft 472 kts 287°
2026-05-01 10:01 -33.41101 149.21454 29184 ft 474 kts 287°
2026-05-01 10:01 -33.40049 149.17720 29474 ft 475 kts 287°
2026-05-01 10:02 -33.38988 149.13960 29751 ft 477 kts 287°
2026-05-01 10:02 -33.37924 149.10193 29979 ft 479 kts 287°
2026-05-01 10:02 -33.36855 149.06416 30223 ft 480 kts 287°
2026-05-01 10:02 -33.35779 149.02617 30282 ft 483 kts 287°
2026-05-01 10:03 -33.33621 148.95018 30336 ft 479 kts 287°
2026-05-01 10:03 -33.31482 148.87506 30338 ft 477 kts 287°
2026-05-01 10:04 -33.29356 148.80054 30326 ft 477 kts 287°
2026-05-01 10:04 -33.27210 148.72553 30322 ft 477 kts 287°
2026-05-01 10:05 -33.25054 148.65036 30324 ft 478 kts 287°
2026-05-01 10:05 -33.23257 148.58787 30319 ft 479 kts 287°
2026-05-01 10:06 -33.21088 148.51261 30316 ft 480 kts 287°
2026-05-01 10:06 -33.18912 148.43728 30301 ft 480 kts 287°
2026-05-01 10:07 -33.16728 148.36185 30307 ft 481 kts 287°
2026-05-01 10:07 -33.14535 148.28633 30306 ft 482 kts 288°
2026-05-01 10:08 -33.10050 148.17873 30305 ft 485 kts 302°
2026-05-01 10:09 -33.06345 148.11161 30289 ft 484 kts 302°
2026-05-01 10:09 -33.02672 148.04468 30279 ft 482 kts 301°
2026-05-01 10:10 -32.99024 147.97777 30281 ft 481 kts 301°
2026-05-01 10:10 -32.93573 147.87771 30287 ft 480 kts 302°
2026-05-01 10:11 -32.89939 147.81113 30283 ft 479 kts 302°
2026-05-01 10:11 -32.86327 147.74511 30278 ft 479 kts 302°
2026-05-01 10:12 -32.82688 147.67874 30277 ft 479 kts 302°